Location: Lecco
(45.8566°N, 9.3977°E)
Time: 13:20:43
(UTC+02:00)

Vanguard 2 Rocket - Pass Details

Date: 16 August 2020
Orbit: 554 x 3326 km, 32.9° (Epoch: 24 September)

Event Time Altitude Azimuth Distance (km) Brightness Sun altitude
Rises 21:27:10 0° 258° (WSW) 3,785 10.9 -10.0°
Reaches altitude 10° 21:29:53 10° 245° (WSW) 3,138 10.1 -10.4°
Maximum altitude 21:36:21 26° 192° (SSW) 2,791 9.2 -11.4°
Enters shadow 21:45:19 12° 145° (SE) 4,676 9.9 -12.7°
Drops below altitude 10° 21:46:07 10° 143° (SE) 4,887 - -12.8°
Sets 21:51:45 0° 133° (SE) 6,378 - -13.6°
